Погода в Гае

Россия / Оренбургская область     51°27′54″N   58°26′37″E
темп.,
°C
ветер,
м/с
пор.,
м/с
влажн.,
%
обл.,
%
осадки,
мм/ч
давл.,
гПа
погр.,
м
17 мая, пн
пн1723:00+21с22354 0.0 102111
02:00+19ссв22371 0.0 102111
05:00+18сз114012 0.0 102211
08:00+23ссв223960 0.0 1022133
11:00+27вюв22295 0.0 1022764
14:00+31ююв3319100 0.0 10203571
17:00+22зюз12144495 0.1 1021606
20:00+18ю2462100 0.3 1021117
18 мая, вт
вт1823:00+18сз11566 0.3 101911
02:00+15юв11725 0.0 102011
05:00+16сз116498 0.0 101810
08:00+21ссз224839 0.0 1018194
11:00+26ссв12335 0.0 1017825
14:00+29юв332611 0.0 10152896
17:00+29ююз122641 0.0 10142892
20:00+20сз4864100 0.8 1015224
19 мая, ср
ср1923:00+19с225728 0.8 101419
02:00+17ссз016665 0.0 101411
05:00+15св713795 0.1 1015435
08:00+17св10137633 0.3 1017745
11:00+20всв9105320 0.3 10181340
14:00+23всв89400 0.0 10182027
17:00+23всв99385 0.0 10182312
20:00+20в611460 0.0 1018462
20 мая, чт
чт2023:00+15всв512480 0.0 1020314
02:00+13всв512550 0.0 1021252
05:00+12всв513600 0.0 1022291
08:00+15вюв711530 0.0 1023667
11:00+19вюв810370 0.0 10221423
14:00+22вюв8103099 0.0 10211843
17:00+22юв8929100 0.0 10211845
20:00+19юв5943100 0.0 1020240
21 мая, пт
пт2123:00+15вюв41351100 0.0 1020222
02:00+13вюв3125677 0.0 1021221
05:00+12вюв385898 0.0 1021147
08:00+16юв6124980 0.0 1021393
11:00+18юв6104640 0.0 1021531
14:00+24ююв81030100 0.0 10191192
17:00+24ююв7930100 0.0 10201704
20:00+20юв4945100 0.0 1019159